Craig, CO

7:17 AM MDT on May 23, 2017 (GMT -0600)
Craig-Moffat

Weather History for KCAG - November, 2013

Change the Weather History Date:

Sunday, November 3, 2013

  Actual Average Record
Temperature  
Mean Temperature 35 °F 36 °F  
Max Temperature 58 °F 51 °F 67 °F (2015)
Min Temperature 11 °F 21 °F 8 °F (2011)
Degree Days  
Heating Degree Days 30 29  
Month to date heating degree days 82 86  
Since 1 July heating degree days 972 1131  
Cooling Degree Days 0 0  
Month to date cooling degree days 0 0  
Year to date cooling degree days 377 142  
Moisture  
Dew Point 23 °F    
Average Humidity 56    
Maximum Humidity 88    
Minimum Humidity 24    
Precipitation  
Precipitation 0.10 in 0.05 in 0.40 in (2003)
Month to date precipitation 0.11 0.17  
Year to date precipitation 11.62 13.78  
Sea Level Pressure  
Sea Level Pressure 29.90 in    
Wind  
Wind Speed 8 mph (West)    
Max Wind Speed 30 mph    
Max Gust Speed 38 mph    
Visibility 6 miles    
Events Fog , Rain , Snow    
T = Trace of Precipitation, MM = Missing Value Source: NWS Daily Summary

Daily Weather History Graph

Daily Weather History Graph

Search for Another Location

Airport or City:

Trip Planner

Search our weather history database for the weather conditions in past years. The results will help you decide how hot, cold, wet, or windy it might be!

Date:

Astronomy

Nov. 03, 2013 Rise Set
Actual Time 6:42 AM MST 5:04 PM MST
Civil Twilight 6:14 AM MST 5:32 PM MST
Nautical Twilight 5:41 AM MST 6:04 PM MST
Astronomical Twilight 5:10 AM MST 6:36 PM MST
Moon 6:49 AM MST (11/3) 5:21 PM MST (11/3)
Length of Visible Light 11h 18m
Length of Day
10h 21m
New Moon, 0% of the Moon is Illuminated
Nov 3
New Moon
Nov 9
First Quarter
Nov 17
Full
Nov 25
Last Quarter
Dec 2
New

Hourly Weather History & Observations

Time (MST) Temp. Windchill Dew Point Humidity Pressure Visibility Wind Dir Wind Speed Gust Speed Precip Events Conditions
12:53 AM 30.0 °F 24.1 °F 23.0 °F 75% 29.90 in 10.0 mi NNE 5.8 mph - N/A   Clear
1:53 AM 25.0 °F - 21.0 °F 85% 29.87 in 10.0 mi Calm Calm - N/A   Clear
1:53 AM 25.0 °F 18.1 °F 19.9 °F 81% 29.85 in 10.0 mi West 5.8 mph - N/A   Clear
2:53 AM 33.1 °F - 21.9 °F 64% 29.78 in 10.0 mi Calm Calm - N/A   Clear
3:53 AM 28.0 °F 22.8 °F 21.9 °F 78% 29.79 in 10.0 mi SSW 4.6 mph - N/A   Clear
4:53 AM 28.0 °F 24.2 °F 21.9 °F 78% 29.79 in 10.0 mi South 3.5 mph - N/A   Clear
5:53 AM 24.1 °F - 19.9 °F 84% 29.83 in 10.0 mi Calm Calm - N/A   Clear
6:53 AM 25.0 °F - 19.9 °F 81% 29.84 in 10.0 mi Calm Calm - N/A   Clear
7:53 AM 30.0 °F 26.5 °F 23.0 °F 75% 29.83 in 10.0 mi SE 3.5 mph - N/A   Clear
8:53 AM 39.0 °F - 26.1 °F 60% 29.78 in 10.0 mi Calm Calm - N/A   Unknown
9:53 AM 46.0 °F - 25.0 °F 44% 29.75 in 10.0 mi Calm Calm - N/A   Clear
10:53 AM 55.0 °F - 21.9 °F 28% 29.70 in 10.0 mi SW 27.6 mph 34.5 mph N/A   Clear
11:53 AM 57.0 °F - 21.9 °F 26% 29.65 in 10.0 mi SW 24.2 mph 38.0 mph N/A   Mostly Cloudy
12:53 PM 52.0 °F - 24.1 °F 34% 29.69 in 10.0 mi West 19.6 mph 28.8 mph N/A   Overcast
1:13 PM 46.4 °F 40.4 °F 26.6 °F 46% 29.73 in 10.0 mi WNW 13.8 mph - N/A   Overcast
1:53 PM 46.0 °F 40.6 °F 28.0 °F 50% 29.75 in 10.0 mi NW 11.5 mph 20.7 mph N/A   Overcast
2:53 PM 39.9 °F 32.9 °F 30.9 °F 70% 29.75 in 10.0 mi NNE 11.5 mph - 0.00 in Rain Light Rain
3:39 PM 35.6 °F 26.2 °F 28.4 °F 75% 29.79 in 1.5 mi NW 15.0 mph 28.8 mph 0.00 in Snow Light Snow
3:41 PM 33.8 °F 23.9 °F 28.4 °F 81% 29.80 in 1.0 mi NW 15.0 mph 28.8 mph 0.00 in Snow Light Snow
3:53 PM 34.0 °F 23.4 °F 28.9 °F 82% 29.88 in 1.5 mi NW 17.3 mph 23.0 mph 0.00 in Snow Light Snow
4:08 PM 32.0 °F 23.0 °F 26.6 °F 80% 29.83 in 3.0 mi WNW 11.5 mph 18.4 mph 0.00 in Snow Light Snow
4:35 PM 30.2 °F 20.8 °F 26.6 °F 86% 29.86 in 1.8 mi NNW 11.5 mph - 0.00 in Snow Light Snow
4:39 PM 30.2 °F 19.8 °F 26.6 °F 86% 29.86 in 0.8 mi NW 13.8 mph 18.4 mph 0.00 in Snow Light Snow
4:53 PM 30.0 °F 21.7 °F 25.0 °F 82% 29.95 in 2.5 mi West 9.2 mph 19.6 mph 0.00 in Snow Light Snow
4:57 PM 30.2 °F 21.3 °F 24.8 °F 80% 29.88 in 6.0 mi WNW 10.4 mph 19.6 mph 0.00 in Snow Light Snow
5:22 PM 30.2 °F 21.3 °F 24.8 °F 80% 29.89 in 10.0 mi NW 10.4 mph - 0.00 in   Overcast
5:40 PM 28.4 °F 21.2 °F 23.0 °F 80% 29.90 in 7.0 mi NNW 6.9 mph - 0.00 in Snow Light Snow
5:53 PM 28.9 °F 21.1 °F 23.0 °F 78% 30.02 in 9.0 mi WNW 8.1 mph - 0.00 in   Overcast
6:06 PM 28.4 °F 18.5 °F 23.0 °F 80% 29.94 in 1.5 mi West 11.5 mph - 0.01 in Snow Light Snow
6:09 PM 28.4 °F 17.5 °F 23.0 °F 80% 29.96 in 1.0 mi WSW 13.8 mph 19.6 mph 0.01 in Snow Light Snow
6:16 PM 28.4 °F 18.5 °F 24.8 °F 86% 29.97 in 0.8 mi West 11.5 mph - 0.01 in Snow Light Snow
6:23 PM 26.6 °F 16.2 °F 24.8 °F 93% 29.96 in 0.5 mi NW 11.5 mph - 0.02 in Fog , Snow Snow
6:30 PM 26.6 °F 20.0 °F 24.8 °F 93% 29.96 in 0.5 mi WNW 5.8 mph 17.3 mph 0.03 in Fog , Snow Snow
6:46 PM 26.6 °F 17.5 °F 24.8 °F 93% 29.97 in 0.5 mi West 9.2 mph - 0.05 in Fog , Snow Snow
6:53 PM 26.1 °F 16.2 °F 24.1 °F 92% 30.11 in 0.5 mi WSW 10.4 mph - 0.06 in Fog , Snow Snow
7:07 PM 26.6 °F 19.1 °F 23.0 °F 86% 29.98 in 0.8 mi WSW 6.9 mph - 0.01 in Snow Light Snow
7:16 PM 26.6 °F 20.0 °F 23.0 °F 86% 30.00 in 1.2 mi West 5.8 mph - 0.02 in Snow Light Snow
7:24 PM 26.6 °F 19.1 °F 23.0 °F 86% 30.00 in 0.8 mi SW 6.9 mph - 0.02 in Snow Light Snow
7:37 PM 26.6 °F 18.2 °F 23.0 °F 86% 30.00 in 0.8 mi SW 8.1 mph - 0.03 in Snow Light Snow
7:41 PM 26.6 °F 18.2 °F 23.0 °F 86% 30.00 in 1.2 mi SSW 8.1 mph - 0.03 in Snow Light Snow
7:49 PM 26.6 °F 22.6 °F 23.0 °F 86% 30.00 in 2.0 mi SSW 3.5 mph - 0.03 in Snow Light Snow
7:53 PM 26.1 °F 20.5 °F 23.0 °F 88% 30.10 in 1.8 mi SW 4.6 mph - 0.03 in Snow Light Snow
8:05 PM 26.6 °F 19.1 °F 21.2 °F 80% 30.01 in 3.0 mi SSW 6.9 mph - 0.01 in Snow Light Snow
8:15 PM 26.6 °F 21.2 °F 21.2 °F 80% 30.01 in 2.5 mi SSW 4.6 mph - 0.01 in Snow Light Snow
8:22 PM 26.6 °F 22.6 °F 21.2 °F 80% 30.01 in 3.0 mi SW 3.5 mph - 0.01 in Snow Light Snow
8:27 PM 26.6 °F 22.6 °F 21.2 °F 80% 30.01 in 2.5 mi WSW 3.5 mph - 0.01 in Snow Light Snow
8:36 PM 26.6 °F 19.1 °F 23.0 °F 86% 30.02 in 1.5 mi SSW 6.9 mph - 0.01 in Snow Light Snow
8:40 PM 24.8 °F 17.9 °F 23.0 °F 93% 30.03 in 2.0 mi SSW 5.8 mph - 0.01 in Snow Light Snow
8:43 PM 24.8 °F 17.9 °F 23.0 °F 93% 30.02 in 3.0 mi SSW 5.8 mph - 0.01 in Snow Light Snow
8:53 PM 25.0 °F 18.1 °F 23.0 °F 92% 30.08 in 6.0 mi South 5.8 mph - 0.01 in   Overcast
9:53 PM 23.0 °F 18.4 °F 19.9 °F 88% 30.06 in 10.0 mi North 3.5 mph - N/A   Overcast
10:53 PM 17.1 °F - 14.0 °F 88% 30.05 in 10.0 mi Calm Calm - N/A   Scattered Clouds